AMAZONAS 5 (42934 NORAD) Tracking and Keplerian Element Data

This shows tracking and keplerian element data for the satellite.

Feedback or suggestion? Click here.




ElementValue
Catalog42934
NameAMAZONAS 5
Epoch Orbit1844
Epoch Day269.73010381
Epoch Year2022
RAAN337.9949
Inclination0.0482
Eccentricity0.00024
Argument of Perigee245.0759
Mean Anonmoly344.282
Mean Motion1.00270151
Decay Rate-2.79E-06
L11 42934U 17053A 22269.73010381 -.00000279 00000+0 00000+0 0 9999
L22 42934 0.0482 337.9949 0002400 245.0759 344.2820 1.00270151 18447

Live tracking and technical data element details for AMAZONAS 5 (NORAD 42934). AMAZONAS 5 can be tracked NOW for your location showing map with azimuth and elevation plus other details from your city location.

Track the satellite on the map from your city or location and see movement details for azimuth, elevation, latitude, longitude, range, height, and movement on the map or in text.







IsCatalogInMostPopularTable: catalog: 42934, numindb: 623
Update: records affected: 1



GetName: 42934 AMAZONAS 5

Hit Count: updated at: Thu, 29 Sep 2022 10:49:30 GMT